STARLINK-2111, 47390

Orbit data source: Space-Track

STARLINK-2111, 47390 is a payload satellite owned by SpaceX/Seattle (US) in LEO that was launched on Wed, 20 Jan 2021 UTC via an FALCON 9 launch vehicle from the Air Force Eastern Test Range (AFETR). Payload-class satellites include a variety of spacecraft equipped with specific instruments for various scientific and technological missions. These include communications satellites like Starlink; space stations such as the ISS; scientific satellites like the Hubble; Earth observation satellites from companies like Planet Labs, Umbra, and HawkEye 360; GPS; miniature CubeSats for education and research; and military/defense satellites.

Loading next visibility...
Identifier
47390, 2021-005AT
Orbit
LEO
Country
Flag of USUS
Related business
Manufacturer
SpaceX/Seattle
Mission
Operational Commercial Communications
Bus & Motor
STARLINK, Unknown motor
Mass
260 kg wet, ~248 kg dry
Launch date (UTC)
2021-01-20 (5 years ago)
Launch vehicle
FALCON 9
Launch site
Air Force Eastern Test Range (AFETR)
Object type
Payload
Rocket body
Debris
Shape & HBR
Box + 1 Pan, 10.1 m
Radar Cross Section
13.562 m², Large (>1 m²)

Expand to show TLE details & history
Last TLE update: 3 days ago

TLE from 3 days ago
0 STARLINK-2111
1 47390U 21005AT  26170.80784934  .00000425  00000-0  25440-4 0  9990
2 47390  53.1594 311.2644 0001110 123.3328 236.7780 15.31718051298619
Epoch: 2026-06-19T19:23Z
TLE epoch observation values (Epoch: 2026-06-19T19:23:18.182Z)
Latitude
-0.00003°
Longitude
112.4071°
Altitude
472.003 km
Speed
7.631 km/s
True Right ascension
20h 45m 03s
True Declination
0° 00' 00"
Sunlit
Object was in full shadow at epoch
Visualization orbit readout
Latitude
Unknown
Longitude
Unknown
Altitude
Unknown
Speed
Unknown
Apparent Right ascension
Unknown
Apparent Declination
Unknown
Sunlit
N/A
Visualization observer readout
Local Sidereal Time
21:33:10
Azimuth
Unknown
Elevation
Unknown
Doppler factor
Unknown
Orbital elements
Apogee altitude
471.703 km
Perigee altitude
470.183 km
Semi-major axis
6,849.08 km
Eccentricity
0.00011
Inclination
53.1594°
RAAN
311.2644°
Arg. of periapsis
123.3328°
True anomaly
236.76736°
Mean anomaly
236.778°
Eccentric anomaly
236.77268°
Mean motion
3.82908 °/min
Orbital period
94.02 mins
BSTAR
0.00002544
Loading maneuver chart data...
Computing Atmospheric mass density...
Loading historical data...
Loading historical data...
Loading historical data...
Loading historical data...
Loading historical data...
Loading historical data...
Loading historical data...

Documentation

Showing up to 5 results
|